Lid_Strength_Index
4 3 2 2 2 2 2 1 1 1 1 1 2 2 2 2 1 1 1 0 -0 -0 1 1 1 1 2 2 2 3 4 3 3 4 4 2 3 4 4 4 1 1 1
5 4 3 2 2 2 2 2 1 1 1 1 1 1 2 2 1 1 1 0 0 0 1 1 1 1 2 2 3 4 4 2 3 4 4 5 3 3 4 5 2 1 1
5 4 4 3 2 2 2 2 2 1 1 1 1 2 2 1 1 2 2 1 0 0 0 1 1 1 3 3 4 4 3 4 3 3 4 6 6 4 3 5 3 3 2
4 4 4 3 3 2 2 2 1 1 1 1 1 2 2 3 2 1 1 1 0 -0 0 1 1 2 2 3 4 3 2 3 3 3 2 4 4 6 6 4 4 4 4
4 4 4 3 3 2 2 2 1 1 1 1 1 2 2 2 1 2 2 1 1 0 0 1 1 3 2 4 4 3 2 3 4 3 3 3 4 6 6 7 5 3 3
4 4 3 3 3 2 2 2 2 2 1 1 1 2 2 2 2 3 2 2 1 1 1 1 1 2 3 3 3 2 3 2 2 3 3 3 4 4 6 6 6 5 4
4 4 4 3 3 3 3 2 2 2 2 1 1 1 2 2 2 2 2 2 2 2 2 1 2 3 4 3 3 2 3 2 3 3 3 3 4 3 4 6 6 5 4
4 4 4 3 3 3 3 2 2 2 2 2 2 1 1 2 2 2 2 1 1 1 1 1 1 3 4 3 3 2 2 2 3 3 3 2 3 3 4 5 4 6 5
4 4 4 3 3 3 3 2 2 2 2 2 1 1 1 1 2 2 2 1 1 1 1 1 1 3 4 3 4 2 2 2 3 3 2 3 3 3 3 3 4 5 7
4 4 4 3 3 2 2 2 2 2 2 2 1 1 1 1 1 2 2 1 1 1 1 1 2 3 4 3 3 3 2 2 2 2 3 3 3 3 3 3 4 4 5
5 4 4 3 3 2 2 2 2 2 2 2 2 1 1 1 1 1 1 1 1 1 1 1 2 2 3 4 3 3 2 3 3 2 3 3 2 3 2 3 3 4 4
4 4 4 3 3 3 3 3 2 2 2 2 2 2 1 1 1 1 1 1 1 2 2 2 2 2 3 4 3 3 3 3 3 3 3 2 2 3 3 3 3 3 4
5 4 5 5 4 3 3 3 2 2 2 2 2 2 2 2 2 1 1 1 1 2 1 2 2 2 3 4 4 3 3 3 3 3 2 2 3 3 2 3 3 2 2
5 5 6 5 4 3 3 3 3 2 2 2 2 2 2 2 2 1 1 1 1 2 2 2 2 2 2 3 3 3 3 3 3 2 3 2 2 3 2 2 2 2 2
5 6 5 6 4 3 3 3 3 2 2 2 2 2 2 2 1 1 1 1 1 1 2 2 2 2 2 2 3 3 3 4 4 3 3 3 2 1 1 2 3 1 3
5 5 5 5 4 3 3 3 3 3 2 2 3 2 2 2 2 2 1 1 1 1 2 2 2 2 2 4 4 3 3 3 4 4 4 3 2 0 1 2 2 2 2
6 7 5 5 4 3 3 3 3 2 3 3 2 2 2 2 2 2 2 2 2 1 2 2 2 3 3 5 5 4 3 4 4 4 3 3 2 1 1 2 2 2 2
6 6 6 5 4 3 3 2 2 3 3 3 3 2 2 2 2 2 2 2 2 2 2 2 2 2 2 6 7 5 3 4 4 3 4 3 3 2 1 2 3 3 2
6 6 4 4 3 3 2 3 3 3 3 3 3 2 2 2 2 2 2 2 2 2 2 2 2 2 2 8 9 7 4 4 4 4 2 3 3 3 4 2 3 3 3
7 6 4 3 4 3 2 3 3 3 3 3 3 2 2 2 2 2 2 2 2 2 2 2 2 4 2 9 10 7 4 5 5 4 3 4 3 5 6 2 3 3 2
6 7 5 4 3 3 3 3 3 4 3 2 2 2 2 2 2 2 2 2 2 2 2 2 2 3 5 8 10 8 4 4 5 4 4 3 6 7 7 5 2 2 3
5 4 7 7 6 3 3 4 4 3 2 2 2 2 2 2 2 2 2 2 2 2 3 3 4 4 6 9 10 9 8 6 4 4 2 2 6 9 8 7 6 6 5
5 4 5 6 6 4 3 4 3 2 2 3 3 3 2 2 2 2 3 3 2 3 3 4 4 5 4 5 10 10 9 7 3 2 3 7 9 10 8 7 6 6 6
7 7 7 5 5 6 3 3 3 2 3 3 3 3 3 3 2 2 2 3 3 3 3 3 5 5 5 5 6 6 7 7 5 6 7 7 7 6 6 5 6 6 7
9 9 6 8 9 9 8 8 6 4 3 3 3 3 3 3 3 8 4 2 4 4 3 3 3 4 5 5 6 6 5 5 6 7 7 7 7 7 6 7 7 7 6
6 7 8 7 6 6 7 7 8 3 3 4 3 3 3 6 7 8 10 12 12 10 10 10 7 5 8 11 12 13 12 12 11 7 7 8 7 6 6 6 6 6 5